Location: Kra?nica
(53.4833°N, 14.6167°E)
Time: 17:24:14
(UTC+00:00)

SL-27 R/B - Pass Details

Date: 23 May 2024
Orbit: 330 x 354 km, 74.7° (Epoch: 13 June)

Event Time Altitude Azimuth Distance (km) Brightness Sun altitude
Exits shadow 01:10:20 - 160° (SSE) 1,398 4.5 -10.6°
Reaches altitude 10° 01:10:43 10° 155° (SSE) 1,266 4.4 -10.6°
Maximum altitude 01:12:50 20° 104° (ESE) 840 4.0 -10.4°
Drops below altitude 10° 01:14:59 10° 53° (NE) 1,273 5.9 -10.2°
Sets 01:17:13 0° 36° (NE) 2,116 8.1 -10.0°
